Precipitable_Water
0.54 0.41 0.30 0.35 0.42 0.43 0.40 0.35 0.33 0.40 0.45 0.39 0.33 0.32 0.36 0.42 0.45 0.44 0.44 0.45 0.45 0.47 0.53 0.55 0.57 0.59 0.58 0.62 0.71 0.79 0.89 0.96 1.08 1.10 1.10 1.11 1.02 1.09 1.16 1.28 1.36 1.46 1.45 1.42
0.45 0.33 0.44 0.48 0.44 0.42 0.39 0.35 0.34 0.42 0.48 0.43 0.39 0.29 0.36 0.40 0.41 0.45 0.43 0.42 0.43 0.43 0.46 0.51 0.49 0.51 0.51 0.52 0.62 0.72 0.80 0.90 0.99 1.05 1.06 1.12 1.12 1.15 1.18 1.26 1.35 1.47 1.48 1.43
0.36 0.39 0.47 0.45 0.42 0.39 0.39 0.37 0.38 0.36 0.43 0.42 0.36 0.24 0.28 0.33 0.38 0.37 0.39 0.40 0.40 0.40 0.40 0.43 0.46 0.48 0.49 0.49 0.53 0.62 0.74 0.85 0.96 1.03 1.09 1.13 1.25 1.28 1.15 1.21 1.29 1.45 1.48 1.46
0.41 0.47 0.45 0.44 0.42 0.47 0.34 0.47 0.45 0.42 0.38 0.25 0.38 0.17 0.25 0.29 0.27 0.29 0.32 0.36 0.36 0.36 0.39 0.44 0.45 0.48 0.50 0.52 0.61 0.66 0.71 0.80 0.91 1.02 1.05 1.04 1.06 1.05 1.06 1.16 1.26 1.32 1.48 1.47
0.33 0.37 0.35 0.37 0.39 0.47 0.39 0.48 0.44 0.44 0.38 0.35 0.32 0.30 0.21 0.28 0.23 0.24 0.29 0.33 0.37 0.38 0.39 0.42 0.46 0.48 0.51 0.53 0.54 0.56 0.59 0.65 0.73 0.89 1.02 1.05 1.06 1.10 1.11 1.14 1.11 1.12 1.18 1.27
0.41 0.55 0.48 0.43 0.47 0.47 0.51 0.49 0.47 0.45 0.39 0.23 0.28 0.28 0.18 0.21 0.22 0.26 0.32 0.38 0.42 0.44 0.47 0.48 0.50 0.51 0.53 0.56 0.57 0.58 0.59 0.61 0.62 0.63 0.65 0.68 0.77 0.88 0.93 0.99 1.01 1.08 1.11 1.13
0.40 0.41 0.51 0.52 0.45 0.54 0.52 0.43 0.28 0.24 0.24 0.19 0.29 0.26 0.23 0.27 0.28 0.32 0.34 0.40 0.48 0.47 0.47 0.50 0.51 0.52 0.53 0.54 0.56 0.57 0.55 0.53 0.56 0.57 0.56 0.55 0.54 0.56 0.62 0.68 0.76 0.87 0.96 1.04
0.26 0.24 0.39 0.47 0.38 0.34 0.37 0.33 0.24 0.17 0.16 0.18 0.29 0.20 0.21 0.29 0.35 0.42 0.46 0.47 0.50 0.49 0.51 0.52 0.53 0.53 0.53 0.53 0.53 0.54 0.52 0.51 0.52 0.52 0.54 0.58 0.58 0.57 0.56 0.58 0.60 0.65 0.73 0.83
0.27 0.26 0.42 0.44 0.45 0.40 0.34 0.29 0.35 0.26 0.26 0.21 0.21 0.24 0.27 0.32 0.36 0.41 0.44 0.50 0.48 0.48 0.50 0.51 0.53 0.53 0.53 0.53 0.52 0.51 0.50 0.49 0.48 0.48 0.50 0.53 0.55 0.56 0.57 0.60 0.64 0.66 0.74 0.81
0.31 0.23 0.37 0.41 0.48 0.47 0.40 0.43 0.30 0.34 0.20 0.18 0.24 0.25 0.23 0.32 0.34 0.40 0.43 0.46 0.49 0.50 0.50 0.51 0.52 0.51 0.50 0.48 0.47 0.46 0.45 0.44 0.45 0.45 0.46 0.45 0.47 0.51 0.55 0.56 0.56 0.59 0.64 0.67
0.37 0.32 0.30 0.39 0.32 0.30 0.37 0.34 0.37 0.36 0.33 0.23 0.21 0.21 0.32 0.34 0.38 0.37 0.41 0.45 0.48 0.50 0.51 0.51 0.49 0.48 0.46 0.44 0.43 0.41 0.40 0.38 0.38 0.38 0.38 0.38 0.40 0.44 0.46 0.46 0.49 0.54 0.58 0.60
0.38 0.34 0.25 0.27 0.39 0.42 0.39 0.33 0.37 0.29 0.25 0.30 0.27 0.21 0.43 0.42 0.44 0.41 0.43 0.48 0.52 0.54 0.53 0.51 0.49 0.46 0.43 0.42 0.43 0.43 0.42 0.40 0.40 0.39 0.40 0.38 0.37 0.37 0.35 0.33 0.36 0.42 0.46 0.53
0.38 0.33 0.23 0.24 0.33 0.40 0.35 0.39 0.39 0.37 0.36 0.27 0.25 0.22 0.43 0.44 0.42 0.44 0.44 0.48 0.51 0.52 0.49 0.48 0.46 0.47 0.48 0.47 0.46 0.47 0.45 0.41 0.40 0.39 0.38 0.36 0.34 0.33 0.32 0.31 0.32 0.33 0.35 0.39
0.47 0.33 0.27 0.17 0.26 0.35 0.30 0.34 0.38 0.38 0.30 0.26 0.26 0.27 0.36 0.39 0.40 0.44 0.45 0.45 0.47 0.50 0.52 0.49 0.50 0.51 0.50 0.48 0.48 0.49 0.45 0.42 0.40 0.37 0.34 0.31 0.29 0.26 0.27 0.25 0.25 0.26 0.28 0.28
0.45 0.33 0.35 0.32 0.33 0.33 0.31 0.33 0.35 0.35 0.32 0.29 0.28 0.32 0.38 0.44 0.46 0.48 0.49 0.51 0.53 0.51 0.53 0.55 0.57 0.58 0.54 0.51 0.49 0.49 0.44 0.41 0.38 0.35 0.33 0.31 0.28 0.26 0.24 0.22 0.22 0.22 0.23 0.25
0.47 0.31 0.34 0.29 0.36 0.36 0.32 0.35 0.34 0.36 0.37 0.38 0.37 0.34 0.46 0.55 0.53 0.49 0.50 0.53 0.53 0.55 0.59 0.55 0.51 0.49 0.50 0.47 0.44 0.42 0.38 0.37 0.35 0.31 0.28 0.27 0.25 0.24 0.23 0.23 0.21 0.21 0.21 0.23
0.36 0.36 0.35 0.27 0.32 0.33 0.29 0.27 0.34 0.36 0.40 0.37 0.31 0.35 0.50 0.47 0.49 0.52 0.51 0.52 0.54 0.56 0.55 0.51 0.49 0.46 0.44 0.41 0.38 0.33 0.29 0.28 0.25 0.23 0.22 0.21 0.21 0.20 0.20 0.21 0.21 0.21 0.21 0.22
0.38 0.31 0.33 0.27 0.33 0.21 0.28 0.38 0.39 0.37 0.38 0.46 0.45 0.46 0.50 0.49 0.48 0.48 0.49 0.49 0.51 0.50 0.49 0.47 0.46 0.42 0.39 0.36 0.31 0.27 0.25 0.22 0.19 0.17 0.17 0.17 0.17 0.17 0.17 0.18 0.18 0.19 0.20 0.22
0.44 0.41 0.31 0.25 0.23 0.28 0.30 0.31 0.33 0.34 0.32 0.45 0.45 0.46 0.46 0.47 0.47 0.45 0.48 0.47 0.44 0.44 0.43 0.42 0.39 0.35 0.29 0.25 0.24 0.20 0.18 0.17 0.16 0.15 0.15 0.15 0.15 0.14 0.15 0.15 0.16 0.17 0.18 0.20
0.45 0.44 0.36 0.29 0.23 0.18 0.25 0.34 0.41 0.46 0.29 0.43 0.44 0.42 0.42 0.44 0.35 0.38 0.43 0.42 0.42 0.41 0.38 0.34 0.28 0.25 0.23 0.19 0.16 0.14 0.14 0.13 0.12 0.13 0.13 0.13 0.13 0.13 0.13 0.14 0.14 0.16 0.18 0.20
0.29 0.36 0.29 0.28 0.26 0.31 0.37 0.39 0.42 0.26 0.23 0.36 0.37 0.40 0.41 0.37 0.39 0.42 0.41 0.40 0.38 0.34 0.28 0.26 0.24 0.19 0.15 0.14 0.13 0.12 0.12 0.11 0.12 0.12 0.12 0.12 0.13 0.13 0.14 0.14 0.16 0.17 0.18 0.20
0.32 0.31 0.30 0.31 0.27 0.23 0.38 0.37 0.30 0.33 0.36 0.35 0.35 0.37 0.37 0.38 0.36 0.34 0.33 0.29 0.27 0.25 0.24 0.19 0.15 0.13 0.13 0.13 0.13 0.11 0.11 0.12 0.12 0.12 0.12 0.12 0.13 0.13 0.14 0.15 0.16 0.18 0.20 0.21
0.31 0.36 0.31 0.34 0.30 0.37 0.39 0.34 0.38 0.37 0.33 0.33 0.33 0.33 0.32 0.31 0.28 0.27 0.27 0.26 0.24 0.21 0.16 0.14 0.13 0.12 0.12 0.12 0.12 0.11 0.11 0.12 0.12 0.12 0.12 0.13 0.14 0.14 0.15 0.16 0.17 0.19 0.22 0.24
0.41 0.43 0.34 0.34 0.35 0.35 0.34 0.34 0.35 0.35 0.33 0.32 0.31 0.29 0.28 0.27 0.28 0.27 0.25 0.23 0.18 0.14 0.12 0.11 0.11 0.10 0.10 0.11 0.11 0.12 0.12 0.13 0.13 0.13 0.13 0.14 0.14 0.15 0.16 0.18 0.20 0.22 0.23 0.23
0.39 0.42 0.37 0.35 0.36 0.36 0.34 0.33 0.33 0.33 0.32 0.31 0.30 0.29 0.29 0.28 0.27 0.24 0.21 0.15 0.12 0.11 0.11 0.11 0.11 0.11 0.11 0.11 0.12 0.13 0.13 0.14 0.14 0.14 0.15 0.15 0.15 0.15 0.16 0.18 0.20 0.22 0.25 0.26
0.39 0.38 0.33 0.31 0.35 0.34 0.33 0.33 0.31 0.30 0.29 0.29 0.29 0.28 0.28 0.27 0.23 0.18 0.13 0.12 0.11 0.11 0.11 0.11 0.11 0.11 0.12 0.12 0.13 0.14 0.15 0.15 0.15 0.15 0.15 0.15 0.15 0.16 0.16 0.16 0.18 0.23 0.26 0.27
Wind_Speed
28 29 31 31 31 30 28 27 27 25 26 27 30 35 34 32 32 32 32 32 32 33 33 32 33 34 34 33 33 33 33 33 33 33 33 32 32 32 32 32 32 32 33 32
28 34 31 28 31 32 31 32 33 29 30 30 32 39 35 34 33 33 34 34 34 35 34 33 34 35 35 36 35 33 33 34 35 35 35 34 32 32 32 33 34 34 35 34
33 27 30 31 30 29 29 29 28 30 28 31 32 41 36 34 34 35 35 36 36 36 37 36 34 32 32 33 34 34 34 34 35 35 36 35 35 35 32 32 33 33 34 33
34 36 30 29 32 30 34 28 28 28 27 30 24 35 36 35 38 35 34 35 36 34 32 31 30 28 27 26 26 27 30 32 33 34 35 36 36 36 35 34 34 35 35 36
31 29 33 32 32 28 29 26 27 26 27 28 28 29 33 28 32 33 32 33 33 32 30 28 26 26 25 24 23 23 23 23 26 30 32 34 36 37 36 37 37 37 37 38
32 29 30 31 30 31 26 25 24 24 25 30 27 27 35 29 28 28 25 27 25 21 20 21 21 20 19 20 21 22 22 22 23 24 26 27 31 34 35 36 36 37 37 37
31 32 30 28 25 26 26 23 23 23 25 29 25 26 35 31 28 30 31 28 20 17 16 16 15 15 16 17 18 19 20 21 22 23 23 24 26 27 30 32 33 34 36 36
32 31 33 32 35 29 30 30 27 24 24 26 25 29 30 29 28 27 24 19 16 16 15 14 15 15 15 16 17 18 18 19 20 22 23 24 25 25 26 28 30 32 34 35
29 32 29 28 29 30 28 31 31 27 27 29 29 33 34 30 25 23 20 18 16 16 16 15 15 15 17 17 18 18 19 19 20 21 22 23 25 27 28 29 30 31 32 35
31 27 30 30 28 29 28 24 22 24 23 24 22 25 25 20 21 20 17 16 16 16 16 16 16 16 17 18 19 18 19 20 22 23 23 24 25 26 28 29 31 32 33 34
33 29 28 27 33 32 27 27 24 22 23 20 20 23 23 22 22 16 16 16 16 16 16 16 16 17 17 18 18 19 20 21 22 23 24 25 27 28 30 31 32 33 34 35
39 30 31 34 28 31 35 33 32 26 24 24 24 31 22 20 19 14 13 14 14 14 14 14 14 14 15 16 18 20 21 22 23 25 26 27 29 30 31 32 33 34 36 36
34 33 29 29 31 30 32 32 31 30 22 27 21 23 19 17 16 16 15 14 14 13 13 13 13 15 17 19 20 22 22 24 25 26 27 28 29 30 31 33 34 35 37 38
33 33 34 34 24 24 29 31 32 30 26 29 31 26 22 20 19 19 18 19 19 19 17 17 18 20 21 23 24 25 27 28 29 29 29 30 32 33 34 36 36 37 37 38
35 33 35 36 31 32 31 33 32 33 34 26 26 27 22 22 21 22 22 21 21 21 21 20 23 24 24 26 27 27 30 30 31 32 33 35 37 37 38 39 39 40 40 41
30 30 36 37 32 30 29 32 33 36 35 33 24 24 22 19 20 20 21 21 20 21 21 21 21 23 25 26 27 30 31 33 35 36 37 38 40 41 41 42 43 44 44 44
33 31 18 32 29 29 31 38 33 32 33 32 30 30 21 21 21 20 20 20 20 22 25 26 26 26 26 28 30 31 34 35 37 39 40 41 43 44 45 46 47 47 48 47
32 36 33 27 22 29 28 28 33 34 33 29 25 24 24 22 19 20 21 21 21 22 24 25 27 29 30 31 32 34 35 37 38 38 41 42 44 46 47 48 49 50 51 51
38 32 28 27 28 24 23 24 25 26 29 27 26 21 20 20 20 22 22 22 23 23 24 26 27 29 30 31 34 35 35 36 37 39 42 44 46 48 50 51 52 53 54 54
35 34 31 20 24 27 23 21 19 19 25 25 25 25 23 22 23 23 23 22 22 23 24 25 27 28 29 31 32 33 34 36 38 40 42 44 47 49 51 53 54 55 56 57
32 30 34 28 22 22 21 20 19 18 17 17 18 20 22 21 21 19 20 20 20 21 21 23 26 27 28 29 30 32 34 35 38 40 43 46 47 50 52 55 56 58 58 58
25 21 20 19 19 26 17 17 20 17 14 14 15 16 16 17 17 17 17 17 18 20 22 24 25 26 28 29 31 33 34 37 40 43 45 48 50 53 54 57 57 58 58 58
19 20 19 16 17 14 16 17 16 15 14 14 14 14 15 15 15 15 16 17 19 21 22 23 24 26 28 30 32 34 37 41 43 45 47 50 52 54 55 57 59 58 57 55
17 17 17 16 15 14 15 13 13 14 13 13 13 13 13 14 15 15 16 18 19 20 21 23 25 27 29 31 34 37 40 42 44 47 49 51 54 55 56 55 55 55 53 51
15 16 16 16 15 14 16 16 15 14 14 13 13 13 14 14 14 16 17 18 19 20 22 24 26 29 32 34 36 39 41 43 45 48 50 52 53 54 54 52 52 51 48 44
17 16 17 16 16 15 16 18 16 15 15 15 14 14 14 15 16 17 18 19 20 22 24 26 29 31 33 35 38 39 42 44 46 48 49 51 51 51 50 49 47 44 41 38
Wind_Direction
242 244 244 246 250 255 260 262 266 268 269 273 273 276 278 279 279 279 279 279 280 281 280 279 278 277 276 272 269 266 264 264 262 261 262 263 264 264 264 263 262 262 264 263
243 245 246 252 252 253 256 261 263 268 270 272 274 275 276 276 276 277 279 280 279 280 279 277 278 276 276 270 267 265 263 263 262 262 262 262 265 266 265 264 263 264 263 263
242 249 245 247 251 252 255 258 263 267 273 272 276 276 275 277 277 279 279 279 279 276 276 275 277 277 277 272 266 264 264 264 263 263 262 262 263 265 266 266 265 265 265 268
248 247 249 248 249 250 257 257 261 266 271 273 271 279 277 280 282 281 281 280 278 275 275 272 272 273 274 274 273 269 266 265 264 264 263 262 263 264 267 268 268 267 267 267
247 246 242 246 248 249 257 258 257 261 266 276 269 274 279 285 285 285 282 281 279 276 271 268 264 267 270 273 273 272 272 271 269 267 266 265 265 266 269 270 270 268 269 268
247 251 246 249 250 246 256 259 266 269 267 268 268 268 278 282 284 286 284 287 286 277 267 262 264 264 268 273 274 274 274 275 274 274 273 272 270 271 271 271 272 271 270 270
245 247 250 249 248 248 249 256 264 264 263 269 273 268 273 282 284 282 282 280 273 270 267 262 261 266 271 276 279 279 278 278 278 278 278 279 278 277 277 276 276 275 274 272
242 249 242 246 245 249 250 249 255 262 265 273 273 269 276 279 282 281 282 266 258 261 264 261 264 269 273 278 282 284 284 283 283 282 281 281 282 281 282 283 282 280 278 277
243 249 251 250 248 240 251 248 254 264 266 271 269 275 279 277 276 277 274 259 257 258 262 261 266 269 273 279 282 284 287 286 287 287 285 285 285 285 284 285 285 284 284 281
247 255 249 245 248 247 248 249 252 249 260 261 269 274 271 274 277 273 264 254 254 258 259 263 269 273 277 281 282 284 287 288 287 289 289 289 289 289 289 288 288 288 288 286
241 248 250 244 243 239 244 247 250 254 252 260 264 267 269 270 273 259 251 251 252 257 260 264 270 274 278 280 284 286 290 292 293 291 291 293 293 291 291 291 292 291 289 289
234 246 247 244 251 246 243 247 240 247 251 257 262 267 268 265 263 245 245 242 247 252 257 263 270 275 278 282 287 289 292 294 294 295 294 294 295 295 294 294 294 292 291 291
230 240 245 249 250 247 242 241 240 243 252 249 254 265 267 258 255 251 244 241 243 244 252 262 272 281 283 288 291 292 295 297 296 297 296 296 297 298 298 298 297 296 294 293
227 237 239 241 247 234 238 237 239 238 247 252 250 260 257 254 247 246 246 247 248 254 259 267 275 282 284 288 292 292 295 296 297 297 298 298 299 299 298 299 298 297 296 295
233 239 238 242 246 242 242 239 235 233 241 245 256 246 249 246 244 246 250 252 251 253 261 269 277 282 286 286 290 291 295 296 297 297 297 298 298 298 298 298 298 297 296 295
234 242 238 238 237 238 244 238 237 236 242 245 253 257 252 247 249 245 249 251 251 256 264 276 282 284 284 286 291 294 295 295 297 297 297 298 298 298 298 297 296 295 295 294
234 234 241 232 236 238 244 239 236 239 239 242 243 250 250 245 246 245 252 255 260 265 269 275 280 280 285 288 291 293 297 298 298 298 298 298 298 298 297 296 296 294 293 292
231 234 234 241 235 232 247 234 233 238 241 240 246 245 245 244 245 251 259 260 264 268 271 276 280 284 286 290 293 294 295 297 298 299 301 301 301 300 299 297 296 294 293 291
228 229 229 232 237 248 248 238 236 235 240 240 238 242 242 238 247 257 259 263 267 270 274 278 283 287 290 293 295 296 297 299 300 301 302 303 303 301 300 298 296 294 292 290
221 223 222 224 233 236 242 238 244 235 250 240 239 238 236 242 251 256 256 262 267 272 277 282 286 289 292 295 297 298 300 302 304 304 305 305 304 303 302 300 298 295 292 289
214 221 226 224 233 240 235 231 230 225 251 235 235 232 234 246 255 249 255 262 268 274 279 285 290 293 296 298 300 301 303 305 306 307 307 308 308 307 306 304 301 298 294 289
210 206 214 219 233 233 230 228 226 240 242 233 231 233 236 240 246 252 256 262 270 278 285 289 292 295 297 300 302 303 305 308 309 309 309 309 309 308 308 306 304 300 295 291
213 213 213 222 231 235 227 230 228 230 227 230 229 236 235 238 245 251 260 269 276 282 287 290 294 296 300 303 304 305 307 308 309 310 311 311 311 311 310 308 306 302 298 292
214 220 221 221 225 222 220 224 226 225 225 226 232 235 235 240 250 258 267 275 280 285 289 293 297 299 302 305 307 307 308 310 311 312 313 313 313 312 312 310 308 305 300 295
222 222 215 226 225 224 230 227 224 223 224 229 235 237 241 246 256 264 272 277 281 286 291 295 299 301 303 306 307 309 310 311 312 313 313 314 315 315 314 313 311 308 302 298
225 223 219 226 223 232 227 220 221 223 226 230 233 242 251 255 263 269 275 280 284 288 293 297 300 302 305 306 308 310 311 312 312 313 315 316 316 317 317 316 315 312 306 300